{"data":{"norad_id":57333,"intl_designator":"2023-099F","name":"STARLINK-5585","alt_names":[],"object_type":"PAYLOAD","status":"ACTIVE","operator":null,"country":"US","launch_date":"2023-07-16","launch_site_code":"AFETR","launch_vehicle":null,"mission":null,"orbit_class":"UNKNOWN","rcs_meters":null,"size_class":null,"mass_kg":null,"dimensions":null,"purposes":["comms"],"wikipedia_slug":null,"has_3d_model":false,"image_url":null,"decayed_at":null,"tle_current":{"epoch":"2026-09-20T07:47:20.920416Z","epoch_age_seconds":139485,"freshness":"FRESH","line1":"1 57333U 23099F   26263.32454769  .00001079  00000+0  48725-4 0  9999","line2":"2 57333  43.0019 233.1815 0001376 266.9131  93.1563 15.27579704175847","mean_motion":15.27579704,"eccentricity":0.0001376,"inclination_deg":43.0019,"raan_deg":233.1815,"arg_perigee_deg":266.9131,"mean_anomaly_deg":93.1563,"bstar":4.8725e-5,"rev_number":17584,"period_min":94.266766979774,"perigee_km":482.10588304151,"apogee_km":483.99408169905,"semimajor_km":6861.1869823703,"source":"CELESTRAK","updated_at":"2026-09-21T09:00:33.596780Z"}}}